Satellite-Ground Cal/Val Site Overpasses Predictions

Prediction of Satellite NPP Overpassing Cal/Val Site: Antarctic Dome C

Ground Cal/Val Site Location: Latitude: -75.10, Longitude: 123.35; Satellite-Ground Site NADIR distance within 100 km.

Table of predicted overpasses for the next 14.0 days since TLE Epoch: 4/27/2017
Interval Starting Time Ending Time Minimum Distance Time Minimum Distance (km)
1 04/29/2017 15:07:24 04/29/2017 15:07:32 04/29/2017 15:07:28 95.27
2 04/30/2017 14:48:24 04/30/2017 14:48:52 04/30/2017 14:48:38 15.88
3 05/02/2017 07:31:13 05/02/2017 07:31:42 05/02/2017 07:31:28 2.70
4 05/05/2017 14:54:41 05/05/2017 14:55:10 05/05/2017 14:54:56 20.68
5 05/06/2017 14:35:59 05/06/2017 14:36:13 05/06/2017 14:36:06 86.35
6 05/07/2017 07:37:31 05/07/2017 07:37:59 05/07/2017 07:37:45 34.34
7 05/08/2017 07:18:46 05/08/2017 07:19:04 05/08/2017 07:18:55 75.74
8 05/10/2017 15:01:00 05/10/2017 15:01:24 05/10/2017 15:01:12 57.62


NCC Satellite Cal/Val Overpasses Prediction Service
